ROMMA est une association bénévole à but non lucratif. Votre soutien est indispensable : ADHERER à ROMMA ou FAIRE un DON

Chambon - (38, Isère)

Oisans (2460 m)   Longitude: 06° 10' 42" E   Latitude: 45° 01' 32" N Station partenaire n°803
 

Détail journalier du     <<     >>

Température Humidité Vent Dir Rafale Dir. rafale Neige 1 Neige 2
Heure (°C) (%) (km/h) (km/h) (cm) (cm)
01:00 -0.66854SSO111SSO159210
02:00 -0.87253SSO114SSO159210
03:00 -2.59343SSO107SSO159210
04:00 -2.59534SSO77SO159215
05:00 -2.59337SSO91SSO161219
06:00 -3.19435SSO92SSO159223
07:00 -3.69134SSO94SO159223
08:00 -5.39752SO118SO158217
09:00 -5.08744OSO95OSO159210
10:00 -5.39626SO55OSO158210
11:00 -5.59623SO37OSO158210
12:00 -4.89124OSO38OSO158210
13:00 -4.59223SO41SO158210
14:00 -3.88027SO46SO158210
15:00 -3.58130SO48SO158210
16:00 -3.77630SO49SO158210
17:00 -3.66929SO47SO158210
18:00 -4.87326SSO46SSO158210
19:00 -5.77316S40SSO158210
20:00 -6.17917S37SO158210
21:00 -6.29024SO36SO158210
22:00 -6.49219SO32SO158210
23:00 -6.58110SO27SO158210
minuit -6.9898SO24SO158210

Graphique du 07-03-2019

 

Serveur OMMA